Measurements were made at the meteorological tower in Juelich (50.90 N / 6.40 E) at an altitude of 20 m,
"Instrument: Carbon Dioxide Isotope Analyzer (CCIA), Los Gatos Inc.",
Responsible PI: Dr. Marc von Hobe; Forschungszentrum Juelich GmbH; IEK-7; email: m.von.hobe@fz-juelich.de,
NaN or negative numbers are fill values (i.e. no valid measurements were made at that time),
Uncertainties are given as the 1-sigma standard deviation over each 10 minute intervals. In each interval ~600 individual measurements are carried out so that the standard error of the mean is approximately sigma/sqrt(600).,
time_utc,CO2_ppm,stdev_CO2_ppm,H2O_ppm,stdev_H2O_ppm
"2014-08-01 00:05:00 000",485.029,1.65929,15374.5,78.2178
"2014-08-01 00:15:00 000",482.049,2.26179,15286.8,118.067
"2014-08-01 00:25:00 000",477.433,3.66076,15310.1,135.590
"2014-08-01 00:35:00 000",483.322,1.57722,15481.1,30.8382
"2014-08-01 00:45:00 000",485.263,5.98850,15220.8,103.790
"2014-08-01 00:55:00 000",469.598,2.48557,15436.0,117.159
"2014-08-01 01:05:00 000",475.613,4.68575,15373.8,114.648
"2014-08-01 01:15:00 000",482.613,1.71284,15249.4,79.2276
"2014-08-01 01:25:00 000",481.315,1.31523,15218.9,69.3825
"2014-08-01 01:35:00 000",479.209,1.52404,15200.5,64.3172
"2014-08-01 01:45:00 000",478.813,1.91794,15019.4,44.1142
"2014-08-01 01:55:00 000",480.865,1.18751,15037.2,113.345
"2014-08-01 02:05:00 000",482.810,2.13103,14834.6,53.0496
"2014-08-01 02:15:00 000",479.167,2.74370,14916.0,73.5188
"2014-08-01 02:25:00 000",474.358,1.14864,15087.1,39.9204
"2014-08-01 02:35:00 000",477.790,2.65347,15028.0,81.2662
"2014-08-01 02:45:00 000",482.226,1.94528,15198.5,146.330
"2014-08-01 02:55:00 000",479.752,3.07547,15404.2,123.089
"2014-08-01 03:05:00 000",480.605,1.68686,15342.6,99.4879
"2014-08-01 03:15:00 000",477.194,2.29405,15462.7,66.4706
"2014-08-01 03:25:00 000",480.356,3.60812,15052.2,86.1952
"2014-08-01 03:35:00 000",479.044,5.72270,14805.1,132.461
"2014-08-01 03:45:00 000",481.617,3.04970,14408.8,93.5975
"2014-08-01 03:55:00 000",476.236,3.14341,14351.8,81.9889
"2014-08-01 04:05:00 000",479.153,2.39186,14509.1,220.437
"2014-08-01 04:15:00 000",476.784,2.25829,14983.9,113.464
"2014-08-01 04:25:00 000",474.535,2.68988,15461.3,191.348
"2014-08-01 04:35:00 000",473.763,1.09761,15943.4,93.0498
"2014-08-01 04:45:00 000",471.876,0.842943,16049.1,49.4022
"2014-08-01 04:55:00 000",471.854,1.06108,16239.8,76.5099
"2014-08-01 05:05:00 000",471.205,1.57308,16606.4,111.900
"2014-08-01 05:15:00 000",464.446,2.74211,16832.1,52.6791
"2014-08-01 05:25:00 000",458.689,2.49852,17035.9,89.2280
"2014-08-01 05:35:00 000",458.203,3.46877,17251.4,50.9379
"2014-08-01 05:45:00 000",454.945,1.46711,17346.7,65.2074
"2014-08-01 05:55:00 000",452.110,2.77078,17712.4,107.247
"2014-08-01 06:05:00 000",453.574,1.85761,18522.5,280.289
"2014-08-01 06:15:00 000",449.356,1.75582,19070.6,97.3795
"2014-08-01 06:25:00 000",443.192,1.84803,19511.4,243.739
"2014-08-01 06:35:00 000",435.841,2.55207,20389.2,339.343
"2014-08-01 06:45:00 000",426.750,2.03124,21351.9,193.750
"2014-08-01 06:55:00 000",426.471,1.15069,22582.5,392.066
"2014-08-01 07:05:00 000",427.997,1.43017,22820.7,94.6529
"2014-08-01 07:15:00 000",430.033,1.94538,22940.1,131.925
"2014-08-01 07:25:00 000",430.327,2.81086,20166.3,2511.79
"2014-08-01 07:35:00 000",426.354,3.75774,17646.8,295.468
"2014-08-01 07:45:00 000",421.350,1.64297,17893.1,259.532
"2014-08-01 07:55:00 000",415.263,6.31256,17784.7,605.855
"2014-08-01 08:05:00 000",404.728,2.82565,17198.8,381.800
"2014-08-01 08:15:00 000",399.219,3.13332,16759.5,585.274
"2014-08-01 08:25:00 000",394.875,2.29856,16732.0,606.022
"2014-08-01 08:35:00 000",391.191,1.38594,16584.3,368.158
"2014-08-01 08:45:00 000",390.834,1.40331,17692.1,579.686
"2014-08-01 08:55:00 000",390.592,2.73291,17535.3,777.205
"2014-08-01 09:05:00 000",391.740,1.67668,16865.7,486.435
"2014-08-01 09:15:00 000",393.063,1.76617,15896.3,548.584
"2014-08-01 09:25:00 000",389.843,2.47017,16448.5,1265.16
"2014-08-01 09:35:00 000",389.365,2.25501,16743.9,687.850
"2014-08-01 09:45:00 000",390.784,3.98032,16501.8,928.452
"2014-08-01 09:55:00 000",388.987,4.11212,17208.0,1369.86
"2014-08-01 10:05:00 000",383.890,6.04394,17623.8,1048.83
"2014-08-01 10:15:00 000",388.656,2.93467,17711.2,746.691
"2014-08-01 10:25:00 000",392.538,1.35573,17643.7,591.731
"2014-08-01 10:35:00 000",392.372,1.88485,17977.6,669.219
"2014-08-01 10:45:00 000",392.576,1.38379,18028.0,499.494
"2014-08-01 10:55:00 000",391.038,1.09302,17726.2,396.456
"2014-08-01 11:05:00 000",390.536,0.881291,17233.8,468.998
"2014-08-01 11:15:00 000",389.098,1.77139,17541.2,808.320
"2014-08-01 11:25:00 000",389.560,1.35339,16935.3,533.074
"2014-08-01 11:35:00 000",388.358,1.60030,16467.5,559.600
"2014-08-01 11:45:00 000",386.911,1.98291,16714.4,627.490
"2014-08-01 11:55:00 000",384.729,1.81912,16486.9,459.341
"2014-08-01 12:05:00 000",383.789,1.16962,16739.9,395.387
"2014-08-01 12:15:00 000",383.083,1.68660,17531.0,1186.83
"2014-08-01 12:25:00 000",383.341,1.59363,16261.0,492.488
"2014-08-01 12:35:00 000",381.696,0.953173,16990.8,580.182
"2014-08-01 12:45:00 000",384.283,1.08632,15560.7,441.619
"2014-08-01 12:55:00 000",383.376,1.37205,15781.3,743.430
"2014-08-01 13:05:00 000",381.970,1.55941,16388.3,645.221
"2014-08-01 13:15:00 000",380.317,1.28800,17090.5,564.224
"2014-08-01 13:25:00 000",380.129,1.89387,16590.1,752.230
"2014-08-01 13:35:00 000",380.848,1.44493,16342.9,820.867
"2014-08-01 13:45:00 000",381.426,1.27699,16303.6,565.163
"2014-08-01 13:55:00 000",381.726,1.27918,16328.5,728.758
"2014-08-01 14:05:00 000",382.585,0.959383,15790.4,307.130
"2014-08-01 14:15:00 000",381.375,1.03207,16328.8,499.561
"2014-08-01 14:25:00 000",382.371,0.637382,15649.4,461.022
"2014-08-01 14:35:00 000",380.619,1.56491,16648.5,973.564
"2014-08-01 14:45:00 000",380.676,1.30557,16971.0,1101.52
"2014-08-01 14:55:00 000",378.905,2.47193,16735.6,918.937
"2014-08-01 15:05:00 000",378.643,2.75042,17239.4,1584.96
"2014-08-01 15:15:00 000",380.857,0.950123,15887.9,902.197
"2014-08-01 15:25:00 000",381.126,0.736890,15770.8,202.792
"2014-08-01 15:35:00 000",381.390,0.883747,15505.8,298.147
"2014-08-01 15:45:00 000",379.214,1.24067,16775.1,538.628
"2014-08-01 15:55:00 000",379.051,2.99528,17443.7,992.146
"2014-08-01 16:05:00 000",379.033,2.04546,16798.6,840.933
"2014-08-01 16:15:00 000",377.663,2.35608,16803.2,807.851
"2014-08-01 16:25:00 000",375.961,2.34696,17231.8,870.166
"2014-08-01 16:35:00 000",377.422,2.14514,17331.8,601.481
"2014-08-01 16:45:00 000",378.875,1.11410,17464.1,493.449
"2014-08-01 16:55:00 000",378.359,1.91889,17797.3,870.854
"2014-08-01 17:05:00 000",378.434,1.09720,17687.3,413.277
"2014-08-01 17:15:00 000",377.212,1.70134,18039.1,473.393
"2014-08-01 17:25:00 000",378.024,1.47173,17811.0,440.826
"2014-08-01 17:35:00 000",378.126,1.38098,18092.1,470.862
"2014-08-01 17:45:00 000",379.147,1.06229,17640.4,316.975
"2014-08-01 17:55:00 000",379.451,1.07313,17842.6,340.202
"2014-08-01 18:05:00 000",381.434,2.03684,17914.6,278.114
"2014-08-01 18:15:00 000",385.332,1.46265,18097.6,277.659
"2014-08-01 18:25:00 000",385.953,1.07334,17911.5,316.000
"2014-08-01 18:35:00 000",389.413,1.33305,17748.0,138.988
"2014-08-01 18:45:00 000",393.556,0.923540,17614.6,89.8511
"2014-08-01 18:55:00 000",395.069,0.569174,17469.4,99.1597
"2014-08-01 19:05:00 000",395.441,0.494319,17407.1,74.5520
"2014-08-01 19:15:00 000",396.099,0.536607,17302.7,81.2529
"2014-08-01 19:25:00 000",396.727,0.572124,17179.6,77.0250
"2014-08-01 19:35:00 000",397.708,0.828158,17140.1,134.008
"2014-08-01 19:45:00 000",397.568,0.879736,16983.6,105.957
"2014-08-01 19:55:00 000",395.569,1.42806,16696.6,131.334
"2014-08-01 20:05:00 000",396.482,2.11013,16748.2,228.826
"2014-08-01 20:15:00 000",398.163,1.58214,16923.6,137.768
"2014-08-01 20:25:00 000",399.949,2.10429,17073.0,193.960
"2014-08-01 20:35:00 000",398.985,2.00571,17054.8,152.030
"2014-08-01 20:45:00 000",408.643,7.00294,17494.8,348.317
"2014-08-01 20:55:00 000",406.749,3.23282,17595.9,157.441
"2014-08-01 21:05:00 000",414.407,4.78962,17826.2,160.712
"2014-08-01 21:15:00 000",422.922,2.89529,18194.3,79.2776
"2014-08-01 21:25:00 000",420.222,2.69448,18203.5,118.595
"2014-08-01 21:35:00 000",423.858,4.53561,18334.2,149.137
"2014-08-01 21:45:00 000",419.399,5.06855,18381.2,107.045
"2014-08-01 21:55:00 000",421.480,5.03878,18581.5,71.5851
"2014-08-01 22:05:00 000",418.339,2.89892,18652.1,45.1967
"2014-08-01 22:15:00 000",418.674,1.46056,18713.8,45.9176
"2014-08-01 22:25:00 000",421.268,1.89692,18811.5,45.4789
"2014-08-01 22:35:00 000",422.817,1.42229,18890.5,41.7328
"2014-08-01 22:45:00 000",426.192,1.77050,18824.0,100.007
"2014-08-01 22:55:00 000",421.880,2.43012,18690.4,48.6679
"2014-08-01 23:05:00 000",420.593,0.936359,18599.0,61.6236
"2014-08-01 23:15:00 000",421.762,1.15060,18481.0,32.3970
"2014-08-01 23:25:00 000",420.334,1.63419,18433.2,47.2433
"2014-08-01 23:35:00 000",420.893,1.27491,18318.3,52.1427
"2014-08-01 23:45:00 000",421.883,0.953005,18309.5,57.1232
"2014-08-01 23:55:00 000",422.745,1.52850,18214.2,65.1141
"2014-08-02 00:05:00 000",422.760,1.28481,18105.1,48.8963
"2014-08-02 00:15:00 000",424.001,1.63313,18176.7,65.4866
"2014-08-02 00:25:00 000",423.296,1.33905,18128.2,44.1776
"2014-08-02 00:35:00 000",423.494,1.16976,18065.9,54.7447
"2014-08-02 00:45:00 000",422.522,0.911994,17967.4,39.8558
"2014-08-02 00:55:00 000",423.411,0.907290,17958.3,40.0681
"2014-08-02 01:05:00 000",425.499,0.985919,17987.5,40.8223
"2014-08-02 01:15:00 000",424.928,0.911313,17770.1,102.661
"2014-08-02 01:25:00 000",423.914,0.751097,17530.0,71.6828
"2014-08-02 01:35:00 000",422.299,0.900611,17388.5,61.7708
"2014-08-02 01:45:00 000",422.182,0.803611,17334.0,43.5404
"2014-08-02 01:55:00 000",422.921,0.617027,17382.1,30.1965
"2014-08-02 02:05:00 000",422.927,0.829995,17374.9,59.9852
"2014-08-02 02:15:00 000",422.473,0.629742,17268.0,38.4059
"2014-08-02 02:25:00 000",422.102,0.897305,17256.1,87.4101
"2014-08-02 02:35:00 000",422.606,1.25060,17142.4,56.8787
"2014-08-02 02:45:00 000",421.519,2.27235,17012.1,99.4654
"2014-08-02 02:55:00 000",421.130,1.26349,16955.2,50.8900
"2014-08-02 03:05:00 000",421.869,1.35558,16995.7,70.1301
"2014-08-02 03:15:00 000",422.052,1.33093,16997.6,57.4694
"2014-08-02 03:25:00 000",423.230,1.23913,17007.5,60.7420
"2014-08-02 03:35:00 000",423.568,1.03712,16957.5,38.5770
"2014-08-02 03:45:00 000",423.424,1.03888,16885.8,53.2199
"2014-08-02 03:55:00 000",423.827,0.909866,16984.4,38.0344
"2014-08-02 04:05:00 000",422.471,1.51840,16844.7,108.029
"2014-08-02 04:15:00 000",421.567,0.951403,16706.0,73.4461
"2014-08-02 04:25:00 000",420.697,0.789557,16546.7,52.6488
"2014-08-02 04:35:00 000",419.805,0.644101,16501.1,40.5649
"2014-08-02 04:45:00 000",420.267,0.657691,16535.1,44.2997
"2014-08-02 04:55:00 000",418.551,0.957396,16453.0,48.7990
"2014-08-02 05:05:00 000",417.827,0.584737,16443.1,41.5943
"2014-08-02 05:15:00 000",417.407,0.683358,16503.6,49.3280
"2014-08-02 05:25:00 000",416.882,0.509794,16504.5,44.6059
"2014-08-02 05:35:00 000",417.292,0.505184,16575.6,99.2422
"2014-08-02 05:45:00 000",415.793,0.756652,16593.8,65.6888
"2014-08-02 05:55:00 000",413.798,0.822996,16468.2,99.3174
"2014-08-02 06:05:00 000",411.847,0.878274,16524.1,135.715
"2014-08-02 06:15:00 000",410.191,0.620340,16614.3,163.641
"2014-08-02 06:25:00 000",408.949,0.644880,16562.2,168.925
"2014-08-02 06:35:00 000",409.090,0.644596,16514.4,162.607
"2014-08-02 06:45:00 000",410.300,1.35580,16624.1,110.941
"2014-08-02 06:55:00 000",412.258,0.679776,16808.1,122.315
"2014-08-02 07:05:00 000",411.338,1.16781,16877.2,231.942
"2014-08-02 07:15:00 000",408.848,0.874387,16989.4,145.699
"2014-08-02 07:25:00 000",407.444,0.808642,16916.8,117.781
"2014-08-02 07:35:00 000",405.241,0.947214,16978.0,165.406
"2014-08-02 07:45:00 000",405.034,0.712639,17176.1,133.755
"2014-08-02 07:55:00 000",404.446,0.969215,17510.2,227.803
"2014-08-02 08:05:00 000",402.016,1.22285,17857.6,98.3249
"2014-08-02 08:15:00 000",399.623,0.702255,18102.5,217.692
"2014-08-02 08:25:00 000",397.491,0.997461,18065.1,192.495
"2014-08-02 08:35:00 000",395.552,1.26027,18156.6,268.717
"2014-08-02 08:45:00 000",393.115,1.14790,18038.0,201.623
"2014-08-02 08:55:00 000",391.166,1.04048,17867.7,414.219
"2014-08-02 09:05:00 000",389.223,0.707789,17731.7,334.143
"2014-08-02 09:15:00 000",387.250,1.00597,18016.0,383.058
"2014-08-02 09:25:00 000",385.041,0.871274,18170.5,365.667
"2014-08-02 09:35:00 000",383.643,0.956832,18282.5,352.715
"2014-08-02 09:45:00 000",381.726,1.04043,18805.2,306.438
"2014-08-02 09:55:00 000",380.843,1.02710,18451.2,437.216
"2014-08-02 10:05:00 000",379.909,1.11203,18695.3,357.760
"2014-08-02 10:15:00 000",379.458,0.819976,18584.9,246.193
"2014-08-02 10:25:00 000",379.679,1.30329,19030.4,403.238
"2014-08-02 10:35:00 000",378.355,0.835899,18518.5,436.530
"2014-08-02 10:45:00 000",378.181,1.40218,18232.9,694.794
"2014-08-02 10:55:00 000",378.941,0.824661,17616.9,358.213
"2014-08-02 11:05:00 000",378.953,0.799743,18176.2,480.456
"2014-08-02 11:15:00 000",379.698,0.844074,18137.0,345.917
"2014-08-02 11:25:00 000",380.887,1.72006,18318.4,717.085
"2014-08-02 11:35:00 000",381.804,1.04196,18330.8,359.150
"2014-08-02 11:45:00 000",381.134,0.563503,18296.0,226.721
"2014-08-02 11:55:00 000",378.617,1.57821,18756.6,468.328
"2014-08-02 12:05:00 000",378.733,1.38063,18902.6,801.612
"2014-08-02 12:15:00 000",380.514,1.38808,18880.0,656.985
"2014-08-02 12:25:00 000",378.609,1.17624,19804.0,286.856
"2014-08-02 12:35:00 000",379.158,1.10927,19221.1,563.827
"2014-08-02 12:45:00 000",379.382,0.867090,17935.9,397.835
"2014-08-02 12:55:00 000",377.664,1.06218,18279.8,413.348
"2014-08-02 13:05:00 000",377.743,1.10921,18774.5,455.716
"2014-08-02 13:15:00 000",377.727,0.956144,19371.6,593.079
"2014-08-02 13:25:00 000",378.527,0.705123,19523.5,513.103
"2014-08-02 13:35:00 000",379.270,0.736982,19517.7,261.422
"2014-08-02 13:45:00 000",381.838,1.19918,19575.5,301.448
"2014-08-02 13:55:00 000",384.202,1.73179,20977.8,174.306
"2014-08-02 14:05:00 000",385.436,1.73994,20766.2,239.012
"2014-08-02 14:15:00 000",385.070,1.07558,19873.7,348.637
"2014-08-02 14:25:00 000",386.970,1.74148,19272.2,282.186
"2014-08-02 14:35:00 000",389.235,2.39585,20405.0,180.169
"2014-08-02 14:45:00 000",390.608,0.910848,20893.3,201.799
"2014-08-02 14:55:00 000",393.103,1.67833,22048.9,229.614
"2014-08-02 15:05:00 000",394.627,1.08808,23079.1,397.767
"2014-08-02 15:15:00 000",393.513,1.02372,23624.7,185.986
"2014-08-02 15:25:00 000",392.685,0.913879,23674.9,78.6582
"2014-08-02 15:35:00 000",391.261,1.00147,23746.7,99.0220
"2014-08-02 15:45:00 000",392.308,0.980691,23845.9,71.7653
"2014-08-02 15:55:00 000",390.009,1.69151,24043.3,87.8594
"2014-08-02 16:05:00 000",386.009,1.05951,24195.7,144.715
"2014-08-02 16:15:00 000",386.431,3.97976,24416.5,268.466
"2014-08-02 16:25:00 000",385.575,1.07056,23006.7,348.127
"2014-08-02 16:35:00 000",389.292,2.91560,23007.6,417.944
"2014-08-02 16:45:00 000",392.702,2.75310,23207.7,488.873
"2014-08-02 16:55:00 000",389.145,2.16676,22630.4,260.640
"2014-08-02 17:05:00 000",387.815,0.883126,22192.7,266.549
"2014-08-02 17:15:00 000",386.310,1.93271,22139.0,217.650
"2014-08-02 17:25:00 000",386.342,1.60708,22515.7,352.622
"2014-08-02 17:35:00 000",388.084,1.36998,23001.5,138.325
"2014-08-02 17:45:00 000",386.983,1.71244,22593.0,250.566
"2014-08-02 17:55:00 000",385.286,0.845241,22694.0,284.529
"2014-08-02 18:05:00 000",384.913,1.94983,22806.0,215.914
"2014-08-02 18:15:00 000",383.971,1.17817,22894.7,121.816
"2014-08-02 18:25:00 000",384.904,0.951247,22628.0,152.970
"2014-08-02 18:35:00 000",385.873,1.30895,22574.8,130.535
"2014-08-02 18:45:00 000",387.713,0.864724,22563.1,78.3411
"2014-08-02 18:55:00 000",389.805,0.669189,22443.5,61.9475
"2014-08-02 19:05:00 000",389.937,0.932093,22122.7,384.261
"2014-08-02 19:15:00 000",390.461,0.643236,21749.2,100.948
"2014-08-02 19:25:00 000",393.956,2.40602,21383.5,127.142
"2014-08-02 19:35:00 000",399.685,1.53418,21646.7,244.561
"2014-08-02 19:45:00 000",401.108,2.09020,21447.7,205.246
"2014-08-02 19:55:00 000",403.577,4.14853,21640.7,73.4727
"2014-08-02 20:05:00 000",409.131,2.01985,21783.0,102.890
"2014-08-02 20:15:00 000",407.919,2.26275,21285.4,174.261
"2014-08-02 20:25:00 000",411.263,4.65670,21218.6,119.480
"2014-08-02 20:35:00 000",413.706,3.04046,21408.5,181.664
"2014-08-02 20:45:00 000",410.607,2.08419,21741.4,49.3763
"2014-08-02 20:55:00 000",417.111,1.55908,21391.6,283.121
"2014-08-02 21:05:00 000",415.960,2.10936,21114.8,81.4648
"2014-08-02 21:15:00 000",426.568,4.81103,21346.7,182.631
"2014-08-02 21:25:00 000",422.121,2.88576,21491.3,565.753
"2014-08-02 21:35:00 000",427.074,1.97481,20534.3,60.5397
"2014-08-02 21:45:00 000",422.276,2.49686,20462.5,124.043
"2014-08-02 21:55:00 000",428.217,3.74030,20297.1,62.4589
"2014-08-02 22:05:00 000",428.469,4.99931,20435.5,47.9763
"2014-08-02 22:15:00 000",432.078,9.21047,20586.7,304.395
"2014-08-02 22:25:00 000",427.295,4.98918,19924.9,89.5180
"2014-08-02 22:35:00 000",423.033,2.91211,19319.5,245.294
"2014-08-02 22:45:00 000",434.545,4.45127,19315.7,58.7028
"2014-08-02 22:55:00 000",439.882,2.98216,19677.1,85.3555
"2014-08-02 23:05:00 000",444.484,1.04351,19311.1,281.590
"2014-08-02 23:15:00 000",446.324,2.75612,18594.9,207.659
"2014-08-02 23:25:00 000",441.839,4.99304,18735.3,190.305
"2014-08-02 23:35:00 000",441.915,3.19509,18577.9,145.836
"2014-08-02 23:45:00 000",447.509,6.09262,18305.6,83.4917
"2014-08-02 23:55:00 000",452.173,2.89439,18309.2,50.9597
"2014-08-03 00:05:00 000",453.161,4.45370,18347.6,116.086
"2014-08-03 00:15:00 000",440.891,8.73526,18460.5,90.1131
"2014-08-03 00:25:00 000",434.636,5.62915,18570.7,114.873
"2014-08-03 00:35:00 000",435.998,2.28566,18487.2,124.918
"2014-08-03 00:45:00 000",445.462,7.51972,18770.4,106.942
"2014-08-03 00:55:00 000",465.395,6.65387,18804.3,61.5290
"2014-08-03 01:05:00 000",460.957,4.73410,18944.8,78.7987
"2014-08-03 01:15:00 000",458.739,5.72112,18960.2,79.6210
"2014-08-03 01:25:00 000",451.620,2.10100,18924.1,119.487
"2014-08-03 01:35:00 000",456.802,12.3289,18810.5,111.487
"2014-08-03 01:45:00 000",439.269,6.85429,19021.7,88.8834
"2014-08-03 01:55:00 000",440.775,8.52033,19122.6,68.7816
"2014-08-03 02:05:00 000",435.740,5.31678,19118.9,89.4176
"2014-08-03 02:15:00 000",439.042,10.1190,18951.5,110.971
"2014-08-03 02:25:00 000",431.281,4.18087,19017.9,100.943
"2014-08-03 02:35:00 000",425.463,2.56854,18723.5,155.691
"2014-08-03 02:45:00 000",426.001,1.93545,17961.6,291.712
"2014-08-03 02:55:00 000",427.665,3.17955,17422.9,61.9922
"2014-08-03 03:05:00 000",425.305,1.23640,17448.0,46.2831
"2014-08-03 03:15:00 000",426.652,1.08686,17424.6,107.446
"2014-08-03 03:25:00 000",420.455,1.90230,17702.9,54.8728
"2014-08-03 03:35:00 000",419.018,0.820294,17652.1,112.657
"2014-08-03 03:45:00 000",421.447,1.34059,17378.3,124.084
"2014-08-03 03:55:00 000",428.097,2.24973,17045.5,66.4512
"2014-08-03 04:05:00 000",430.327,1.50331,16870.3,89.8304
"2014-08-03 04:15:00 000",426.184,1.16381,16868.2,84.4889
"2014-08-03 04:25:00 000",423.668,0.790173,16867.7,60.8247
"2014-08-03 04:35:00 000",427.068,7.87515,16604.9,149.136
"2014-08-03 04:45:00 000",428.459,7.63259,16831.1,123.578
"2014-08-03 04:55:00 000",423.352,1.93191,17082.7,151.838
"2014-08-03 05:05:00 000",425.618,0.928448,17945.7,338.348
"2014-08-03 05:15:00 000",422.110,1.14102,18753.6,286.880
"2014-08-03 05:25:00 000",419.099,1.44208,19536.1,235.588
"2014-08-03 05:35:00 000",417.557,1.04478,20466.6,223.689
"2014-08-03 05:45:00 000",416.302,2.67420,21061.8,109.859
"2014-08-03 05:55:00 000",415.752,2.84472,19904.9,1676.20
"2014-08-03 06:05:00 000",410.398,1.49916,17469.9,114.706
"2014-08-03 06:15:00 000",407.396,1.90581,17565.1,121.162
"2014-08-03 06:25:00 000",404.876,3.03995,17549.9,398.548
"2014-08-03 06:35:00 000",402.894,3.84555,17224.2,234.497
"2014-08-03 06:45:00 000",405.661,4.36823,17522.0,274.657
"2014-08-03 06:55:00 000",404.090,2.71807,17148.9,227.352
"2014-08-03 07:05:00 000",402.338,0.869203,17098.6,234.693
"2014-08-03 07:15:00 000",404.618,2.11926,17396.4,223.232
"2014-08-03 07:25:00 000",406.181,1.42833,17379.3,170.868
"2014-08-03 07:35:00 000",404.183,1.34023,17249.8,232.251
"2014-08-03 07:45:00 000",402.089,1.15102,17407.5,217.326
"2014-08-03 07:55:00 000",402.566,0.984845,17651.0,172.024
"2014-08-03 08:05:00 000",399.269,2.18736,17731.4,251.286
"2014-08-03 08:15:00 000",396.870,0.994650,17488.1,205.090
"2014-08-03 08:25:00 000",395.836,1.03194,17801.7,232.919
"2014-08-03 08:35:00 000",396.123,1.24135,17764.6,348.440
"2014-08-03 08:45:00 000",394.462,1.09921,17893.9,239.531
"2014-08-03 08:55:00 000",395.273,0.973879,17928.8,267.738
"2014-08-03 09:05:00 000",395.360,0.890147,17899.2,323.815
"2014-08-03 09:15:00 000",394.229,1.16698,17881.4,187.679
"2014-08-03 09:25:00 000",393.052,1.19119,18039.6,298.688
"2014-08-03 09:35:00 000",393.775,1.09631,17837.7,287.389
"2014-08-03 09:45:00 000",392.126,1.17022,18274.4,360.941
"2014-08-03 09:55:00 000",392.988,1.26432,18052.7,240.352
"2014-08-03 10:05:00 000",391.333,1.03720,18535.7,426.437
"2014-08-03 10:15:00 000",392.131,1.29956,18243.1,493.437
"2014-08-03 10:25:00 000",390.559,1.64163,18372.4,368.310
"2014-08-03 10:35:00 000",391.616,1.22294,18049.9,222.063
"2014-08-03 10:45:00 000",389.876,1.37880,18180.5,226.447
"2014-08-03 10:55:00 000",390.166,1.08828,17927.6,218.187
"2014-08-03 11:05:00 000",388.956,1.53693,18234.6,217.910
"2014-08-03 11:15:00 000",388.229,1.31973,18565.0,390.761
"2014-08-03 11:25:00 000",388.344,1.01580,18406.8,335.645
"2014-08-03 11:35:00 000",387.266,1.57035,18719.3,515.197
"2014-08-03 11:45:00 000",386.573,1.81416,18640.1,528.315
"2014-08-03 11:55:00 000",387.931,1.55172,18520.7,737.922
"2014-08-03 12:05:00 000",386.031,1.49208,18629.5,537.606
"2014-08-03 12:15:00 000",387.018,1.11724,17796.9,233.116
"2014-08-03 12:25:00 000",387.547,1.23287,17715.0,279.024
"2014-08-03 12:35:00 000",387.727,0.768645,17675.0,216.969
"2014-08-03 12:45:00 000",385.964,1.74787,17961.0,306.324
"2014-08-03 12:55:00 000",386.634,2.34248,18389.4,649.919
"2014-08-03 13:05:00 000",384.409,1.55832,18104.4,258.726
"2014-08-03 13:15:00 000",384.771,1.55749,18286.9,465.054
"2014-08-03 13:25:00 000",383.752,2.01462,18238.3,417.210
"2014-08-03 13:35:00 000",384.990,1.47881,18030.6,293.973
"2014-08-03 13:45:00 000",386.089,1.35588,18107.2,413.462
"2014-08-03 13:55:00 000",384.852,1.48891,18691.0,819.934
"2014-08-03 14:05:00 000",385.490,1.92440,18203.3,654.587
"2014-08-03 14:15:00 000",384.539,1.41316,18347.6,354.015
"2014-08-03 14:25:00 000",385.674,1.48369,18227.6,708.674
"2014-08-03 14:35:00 000",383.737,2.70973,18280.0,575.457
"2014-08-03 14:45:00 000",383.243,2.51762,18284.2,490.270
"2014-08-03 14:55:00 000",383.156,2.42280,18886.9,419.518
"2014-08-03 15:05:00 000",382.697,2.51123,19204.0,741.373
"2014-08-03 15:15:00 000",383.723,2.16557,18390.8,646.707
"2014-08-03 15:25:00 000",385.739,1.39265,17836.7,422.532
"2014-08-03 15:35:00 000",386.086,1.60980,18521.2,472.439
"2014-08-03 15:45:00 000",387.732,1.31080,19561.4,242.453
"2014-08-03 15:55:00 000",388.926,1.03957,20028.0,455.560
"2014-08-03 16:05:00 000",392.267,2.95769,20380.7,462.068
"2014-08-03 16:15:00 000",395.749,0.667465,19633.0,165.855
"2014-08-03 16:25:00 000",394.739,1.20061,19636.9,309.863
"2014-08-03 16:35:00 000",393.680,1.16107,19595.1,220.693
"2014-08-03 16:45:00 000",392.753,1.83043,19485.8,242.567
"2014-08-03 16:55:00 000",391.083,0.819536,19240.0,168.925
"2014-08-03 17:05:00 000",390.915,0.479910,19079.6,118.308
"2014-08-03 17:15:00 000",391.036,1.12733,18885.9,112.564
"2014-08-03 17:25:00 000",392.087,1.15965,19058.3,179.523
"2014-08-03 17:35:00 000",392.093,0.917616,18994.8,141.158
"2014-08-03 17:45:00 000",392.808,1.27493,19094.9,123.344
"2014-08-03 17:55:00 000",396.488,1.57656,19210.0,177.409
"2014-08-03 18:05:00 000",399.747,4.12509,19248.2,210.482
"2014-08-03 18:15:00 000",397.391,1.80867,19287.5,163.877
"2014-08-03 18:25:00 000",396.407,0.957388,19239.3,107.165
"2014-08-03 18:35:00 000",398.845,5.76606,18239.5,560.865
"2014-08-03 18:45:00 000",392.207,1.71622,16818.3,335.654